DW8426 Weather Reports


Display with metric or nautical units.
time (UTC)temp
F
wind
direction
speed
MPH
gust
MPH
rain 1hr
in
rain 24hr
in
rain mn
in
humidity
%
barometer
mb
20260510230106 70 355 0.0 4.0 0.00 0.26 0.00 33 1019.7
20260510224601 72 0 0.0 3.0 0.00 0.26 0.00 31 1019.6
20260510223059 73 0 0.0 4.0 0.00 0.26 0.00 32 1019.6
20260510221601 72 0 0.0 3.0 0.00 0.26 0.00 32 1019.7
20260510220056 72 0 0.0 2.0 0.00 0.26 0.00 31 1019.6
20260510214558 71 0 0.0 4.0 0.00 0.26 0.00 36 1019.7
20260510213101 72 212 0.0 5.0 0.00 0.26 0.00 35 1019.6
20260510211557 72 0 0.0 3.0 0.00 0.26 0.00 33 1019.6
20260510210057 73 0 0.0 2.0 0.00 0.26 0.00 31 1019.9
20260510204608 73 0 0.0 4.0 0.00 0.26 0.00 33 1020.0
20260510203105 74 14 0.0 4.0 0.00 0.26 0.00 33 1019.8
20260510201604 73 294 0.0 2.0 0.00 0.26 0.00 38 1019.7
20260510200057 71 0 0.0 3.0 0.00 0.26 0.00 37 1019.8
20260510194559 73 346 0.0 4.0 0.00 0.26 0.00 37 1019.8
20260510193105 72 0 1.0 3.0 0.00 0.26 0.00 36 1019.9
20260510191601 71 0 0.0 3.0 0.00 0.26 0.00 34 1019.9
20260510184555 67 0 0.0 2.0 0.00 0.26 0.00 41 1019.8
20260510183059 68 0 0.0 4.0 0.00 0.26 0.00 37 1019.7
20260510181603 68 0 0.0 4.0 0.00 0.26 0.00 38 1019.6
20260510180059 69 355 0.0 3.0 0.00 0.26 0.00 37 1019.5
20260510174556 68 0 0.0 7.0 0.00 0.26 0.00 37 1019.7
20260510173111 67 0 0.0 3.0 0.00 0.26 0.00 43 1019.8
20260510171555 65 0 0.0 3.0 0.00 0.26 0.00 47 1020.0
20260510170058 66 0 0.0 3.0 0.00 0.26 0.00 55 1020.0
20260510164610 65 35 0.0 5.0 0.00 0.26 0.00 59 1020.1
20260510163103 62 0 0.0 1.0 0.00 0.26 0.00 57 1020.1
20260510161557 62 0 0.0 2.0 0.00 0.26 0.00 62 1020.0
20260510160058 62 0 0.0 2.0 0.00 0.26 0.00 56 1020.2
20260510154555 62 345 0.0 4.0 0.00 0.26 0.00 59 1020.1
20260510153059 60 0 0.0 2.0 0.00 0.26 0.00 62 1020.2
20260510151604 59 302 0.0 3.0 0.00 0.26 0.00 66 1019.9
20260510150104 59 0 0.0 2.0 0.00 0.26 0.00 66 1019.7
20260510144555 59 0 0.0 2.0 0.00 0.26 0.00 66 1019.7
20260510143058 59 0 0.0 2.0 0.00 0.26 0.00 70 1019.4
20260510141556 59 0 0.0 5.0 0.00 0.26 0.00 65 1019.3
20260510140056 58 0 0.0 4.0 0.00 0.26 0.00 66 1019.0
20260510134555 58 36 0.0 4.0 0.00 0.26 0.00 67 1018.8
20260510133057 57 342 0.0 3.0 0.00 0.26 0.00 69 1018.7
20260510131556 55 0 0.0 3.0 0.00 0.26 0.00 75 1018.9
20260510130057 54 0 0.0 2.0 0.00 0.26 0.00 80 1018.5
20260510124556 54 0 0.0 3.0 0.00 0.26 0.00 84 1018.3
20260510123056 53 0 0.0 2.0 0.00 0.26 0.00 85 1018.1
20260510121558 52 0 0.0 2.0 0.00 0.26 0.00 88 1017.8
20260510120058 52 0 0.0 2.0 0.00 0.26 0.00 89 1017.6
20260510114604 52 0 0.0 1.0 0.00 0.26 0.00 91 1017.2
20260510113054 52 0 0.0 2.0 0.00 0.26 0.00 91 1016.9
20260510111554 52 0 0.0 1.0 0.00 0.26 0.00 91 1016.6
20260510110055 53 0 0.0 1.0 0.00 0.26 0.00 91 1016.3
20260510104609 53 0 0.0 1.0 0.00 0.27 0.00 92 1016.0
20260510103057 54 0 0.0 2.0 0.00 0.27 0.00 92 1015.7
20260510101556 54 0 0.0 1.0 0.00 0.27 0.00 91 1015.6
20260510100058 54 0 0.0 2.0 0.00 0.27 0.00 91 1015.2
20260510094600 55 0 0.0 1.0 0.00 0.27 0.00 92 1015.1
20260510093057 55 0 0.0 1.0 0.00 0.27 0.00 92 1015.2
20260510091558 56 0 0.0 1.0 0.00 0.27 0.00 92 1015.0
20260510090117 56 0 0.0 2.0 0.00 0.27 0.00 93 1014.9
20260510084600 56 0 0.0 0.0 0.00 0.27 0.00 92 1014.5
20260510083101 57 0 0.0 1.0 0.00 0.27 0.00 92 1014.0
20260510081557 58 0 0.0 2.0 0.00 0.27 0.00 92 1013.8
20260510080059 58 0 0.0 1.0 0.00 0.27 0.00 92 1013.4
20260510074617 58 0 0.0 1.0 0.00 0.27 0.00 92 1013.1
20260510073056 59 0 0.0 1.0 0.00 0.27 0.00 92 1013.3
20260510071602 59 0 0.0 0.0 0.00 0.27 0.00 92 1013.4
20260510070057 59 0 0.0 0.0 0.00 0.27 0.00 92 1013.2
20260510064611 59 0 0.0 1.0 0.00 0.27 0.00 92 1013.2
20260510063103 60 0 0.0 1.0 0.00 0.27 0.00 91 1013.2
20260510061601 60 0 0.0 1.0 0.00 0.27 0.00 92 1013.1
20260510054556 60 0 0.0 3.0 0.00 0.27 0.00 91 1013.1
20260510053056 61 0 0.0 4.0 0.01 0.27 0.00 91 1012.9
20260510051606 61 0 1.0 5.0 0.01 0.27 0.00 91 1012.1
20260510050059 61 338 0.0 3.0 0.02 0.27 0.00 91 1012.3
20260510044558 61 0 0.0 4.0 0.03 0.27 0.27 91 1012.3
20260510043106 61 0 0.0 1.0 0.05 0.26 0.26 90 1012.1
20260510041611 61 0 0.0 2.0 0.07 0.26 0.26 90 1011.7
20260510040058 62 0 0.0 2.0 0.09 0.25 0.25 90 1012.3
20260510034556 62 0 0.0 3.0 0.23 0.24 0.24 89 1012.4
20260510033058 62 37 0.0 5.0 0.20 0.21 0.21 89 1012.0
20260510031601 62 0 0.0 6.0 0.18 0.19 0.19 88 1012.6
20260510030100 63 252 1.0 7.0 0.15 0.16 0.16 86 1012.7
20260510024601 67 0 1.0 8.0 0.00 0.19 0.01 73 1012.2
20260510023057 69 0 0.0 0.0 0.00 0.19 0.01 66 1009.6
20260510021557 70 0 0.0 0.0 0.00 0.19 0.01 62 1009.2
20260510020057 70 0 0.0 1.0 0.00 0.19 0.01 59 1009.0
20260510014556 71 0 0.0 0.0 0.00 0.37 0.01 61 1008.8
20260510013107 71 0 0.0 0.0 0.00 0.37 0.01 60 1008.5
20260510011557 72 0 0.0 0.0 0.00 0.37 0.01 54 1008.4
20260510010110 73 0 0.0 0.0 0.00 0.37 0.01 55 1008.4
20260510004604 76 0 0.0 0.0 0.00 0.38 0.01 51 1008.3
20260510003057 79 0 0.0 0.0 0.00 0.38 0.01 45 1008.1
20260510001557 81 0 0.0 1.0 0.00 0.38 0.01 42 1007.8
20260510000117 82 0 0.0 2.0 0.00 0.38 0.01 38 1007.9
20260509234606 83 0 0.0 3.0 0.00 0.39 0.01 36 1008.0
20260509233057 84 143 0.0 3.0 0.00 0.39 0.01 36 1007.8
20260509231557 84 0 0.0 3.0 0.00 0.39 0.01 39 1007.8